www.pogodaiklimat.ru

Погода и климат >> Архив погоды >> Хорватия >> Шибеник


ПОГОДА в Шибенике

  • Прогноз погоды в Шибенике
  • Монитор погоды в Шибенике

АРХИВ ПОГОДЫ в Шибенике

Время (UTC), дата Ветер
(напр.,м/с)
 
Видим.   Явления Облачность Т
(С)
Тd
(С)
f
(%)
Тe
(С)
Тes
(С)
Комфортность P
(гПа)
Po
(гПа)
Тmin
(С)
Tmax
(С)
R
(мм)
R24
(мм)
S
(см)
13 13.08 ЮЗ 4 35 км 4/1 1000 м
[Cu med, cong Ac lent Ci fib]
+36.3 +18.2 35 +40 +47 очень
душно
1007.5 999.2
14 13.08 ЮЗ 3 н/о н/о +36.7 +18.4 34 +41 +41 опасность
перегрева
1007.6 999.3
15 13.08 З 4 н/о н/о +37.6 +18.2 32 +41 +41 опасность
перегрева
1007.5 999.2
16 13.08 С 7 н/о н/о +33.0 +18.1 41 +37 +37 очень
душно
1007.8 999.4
17 13.08 С 7 н/о н/о +31.9 +17.1 41 +35 +35 очень
душно
1007.4 999.0
18 13.08 С 8 30 км 9/4 1000 м
[Cu Sc As op Ci sp]
+29.6 +18.3 51 +34 +34 очень
душно
1007.2 998.8 +37.6
19 13.08 С 8 25 км 9/4 1000 м
[Cu Sc As op Ci sp]
+28.5 +18.2 54 +33 +33 очень
душно
1007.4 998.9
20 13.08 С 8 25 км 6/3 1000 м
[Cu med, cong Ci fib]
+27.9 +17.8 54 +32 +32 душно 1006.9 998.4
21 13.08 С 4 н/о н/о +27.1 +16.8 53 +31 +31 душно 1007.9 999.3
00 14.08 С 9 н/о н/о +25.1 +17.1 61 +29 +29 душно 1007.1 998.5
03 14.08 С 9 20 км гроза без осадков 10/10 600 м
[Cb calv]
+23.8 +16.4 63 +27 +27 жарко 1008.8 1000.2
04 14.08 СВ 11 25 км в посл. час ливневой дождь {гроза} 10/6 600 м
[Cu Sc As op]
+20.5 +17.9 85 +23 +23 комфорт 1007.3 998.6
05 14.08 СВ 3 25 км 9/4 1000 м
[Cu med, cong Ac lent Ci sp]
+21.1 +18.0 82 +25 +25 комфорт 1007.2 998.5
06 14.08 С 7 25 км 9/3 1000 м
[Cu med, cong Ac As Ci sp]
+21.8 +17.4 76 +26 +26 душно 1008.6 999.9 +19.6 9
07 14.08 С 8 35 км 8/1 1000 м
[Sc diur, vesp Ac cuf Ci sp]
+22.9 +16.1 66 +27 +28 душно 1008.9 1000.3
08 14.08 С 7 35 км 8/3 1000 м
[Cu med, cong Ac cast Ci sp]
+25.0 +15.4 55 +28 +29 жарко 1008.9 1000.3
09 14.08 С 7 35 км 8/3 1000 м
[Cu med, cong Ac trans Ci sp]
+26.0 +14.8 50 +29 +30 душно 1009.7 1001.1
10 14.08 С 8 35 км 6/1 1000 м
[Sc diur, vesp Ac trans Ci sp]
+27.7 +14.5 44 +30 +32 жарко 1009.1 1000.6
11 14.08 СЗ 5 35 км 4/0
[Ac lent Ci sp]
+29.8 +15.3 41 +32 +40 душно 1009.6 1001.1
12 14.08 СЗ 6 35 км 1/1 1000 м
[Cu med, cong Ci sp]
+30.0 +14.7 39 +32 +38 жарко 1010.0 1001.5
13 14.08 СЗ 7 35 км 1/1 1000 м
[Cu med, cong Ci sp]
+29.6 +14.2 39 +32 +35 душно 1010.0 1001.5
14 14.08 С 9 н/о н/о +28.0 +12.0 37 +29 +29 жарко 1011.0 1002.4
15 14.08 С 8 н/о н/о +27.5 +12.0 38 +29 +29 жарко 1011.0 1002.4
16 14.08 С 7 н/о н/о +25.5 +12.1 43 +27 +27 жарко 1011.0 1002.4
17 14.08 С 6 н/о н/о +24.5 +11.9 45 +26 +26 жарко 1011.4 1002.7
18 14.08 С 7 50 км 5/1 1000 м
[Cu med, cong Ac lent Cc]
+23.4 +12.1 49 +26 +26 жарко 1011.0 1002.3 +30.3
19 14.08 С 6 40 км 5/1 1000 м
[Cu med, cong Ac lent Ci sp]
+22.4 +11.2 49 +25 +25 комфорт 1012.1 1003.4
20 14.08 С 6 40 км 3/1 1000 м
[Cu med, cong Ci sp]
+21.5 +10.6 50 +23 +23 комфорт 1012.5 1003.8
21 14.08 н/о н/о +21.4 +8.7 44 1013.0 1004.2
00 15.08 С 3 н/о н/о +20.8 +8.8 46 +23 +23 комфорт 1013.7 1004.9
03 15.08 С 4 40 км ясно +20.7 +9.0 47 +22 +22 комфорт 1012.8 1004.0
04 15.08 С 3 50 км ясно +20.0 +9.3 50 +22 +22 комфорт 1013.2 1004.4
05 15.08 С 4 50 км ясно +20.3 +10.1 52 +22 +22 комфорт 1013.3 1004.5
06 15.08 С 5 50 км ясно +22.4 +10.1 46 +24 +26 комфорт 1013.6 1004.9 +19.6
07 15.08 С 4 50 км ясно +24.4 +9.8 40 +25 +29 комфорт 1013.5 1004.8
08 15.08 С 4 50 км ясно +26.2 +8.5 33 +26 +33 жарко 1013.1 1004.5
09 15.08 С 3 50 км 1/0
[Ci fib]
+27.9 +8.7 30 +28 +39 жарко 1012.8 1004.2
10 15.08 СВ 2 50 км 1/0
[Ci sp]
+28.9 +8.0 27 +28 +44 жарко 1012.4 1003.9
11 15.08 З 4 50 км 1/1 1000 м
[Cu hum]
+29.7 +7.5 25 +29 +39 жарко 1012.0 1003.5
12 15.08 СЗ 5 50 км 1/1 1000 м
[Cu hum]
+29.9 +8.1 26 +29 +36 жарко 1011.7 1003.2
13 15.08 З 4 45 км 1/0
[Ci sp]
+30.3 +8.5 26 +30 +38 жарко 1011.5 1003.0
14 15.08 ЮЗ 7 н/о н/о +28.3 +10.1 32 +29 +29 жарко 1012.2 1003.6
15 15.08 ЮЗ 6 н/о н/о +27.8 +12.2 38 +29 +29 жарко 1012.2 1003.6
16 15.08 З 5 н/о н/о +27.6 +12.9 40 +29 +29 жарко 1012.0 1003.4
17 15.08 З 4 н/о н/о +28.4 +6.5 25 +27 +27 жарко 1012.3 1003.7
18 15.08 СЗ 3 45 км ясно +26.4 +9.5 34 +27 +27 жарко 1011.9 1003.3 +30.9
19 15.08 СЗ 4 40 км 1/0
[Ac lent]
+24.5 +10.2 40 +25 +25 комфорт 1012.7 1004.0
20 15.08 С 4 40 км 1/0
[Ac lent]
+23.1 +9.1 41 +25 +25 комфорт 1013.0 1004.3
21 15.08 С 5 н/о н/о +22.5 +7.5 38 +23 +23 комфорт 1013.5 1004.8
00 16.08 С 5 н/о н/о +20.8 +6.8 40 +22 +22 комфорт 1013.6 1004.8
03 16.08 С 6 30 км 1/0
[Ac trans Ci fib]
+19.9 +8.3 47 +21 +21 комфорт 1012.6 1003.8
04 16.08 С 7 35 км 1/0
[Ac lent Ci sp]
+19.8 +8.2 47 +20 +20 1013.3 1004.5
05 16.08 С 5 40 км 1/1 1000 м
[Sc diur, vesp Ac lent Ci sp]
+19.8 +8.2 47 +21 +21 комфорт 1013.3 1004.5
06 16.08 С 3 45 км 3/1 1000 м
[Sc diur, vesp Ac cuf Ci sp]
+22.4 +9.0 42 +24 +26 комфорт 1013.5 1004.8 +19.3
07 16.08 СВ 2 50 км 6/4 1000 м
[Cu Sc Ac lent Ci sp]
+24.4 +9.1 38 +25 +28 комфорт 1013.5 1004.8
08 16.08 СЗ 3 50 км 5/4 1000 м
[Cu Sc Ac cast Ci sp]
+25.0 +9.7 38 +26 +30 жарко 1013.8 1005.2
09 16.08 З 3 50 км 1/1 1000 м
[Cu med, cong Ac cuf Ci fib]
+27.2 +9.3 32 +27 +37 жарко 1014.1 1005.5
10 16.08 З 4 50 км 1/1 1000 м
[Cu med, cong Ac lent Ci sp]
+28.5 +7.6 27 +28 +37 жарко 1013.3 1004.8
11 16.08 Ю 4 50 км 1/1 1000 м
[Cu med, cong Ac lent Ci sp]
+28.4 +9.0 30 +28 +38 жарко 1013.6 1005.0
12 16.08 Ю 4 45 км 1/0
[Ci sp]
+27.9 +10.1 33 +28 +38 жарко 1013.7 1005.1
13 16.08 Ю 4 45 км 1/1 1000 м
[Cu hum Ci sp]
+28.7 +11.7 35 +30 +37 жарко 1013.6 1005.1
14 16.08 ЮЗ 5 н/о н/о +28.6 +9.9 31 +29 +29 жарко 1013.8 1005.2
15 16.08 ЮЗ 4 н/о н/о +29.4 +10.1 30 +29 +29 жарко 1013.2 1004.7
16 16.08 ЮЗ 2 н/о н/о +30.6 +6.5 22 +29 +29 жарко 1012.8 1004.3
17 16.08 СЗ 6 н/о н/о +28.8 +6.9 25 +28 +28 жарко 1013.3 1004.7
18 16.08 СЗ 6 40 км 1/0
[Ac lent Ci sp]
+26.8 +10.5 36 +28 +28 жарко 1013.3 1004.7 +30.7
19 16.08 С 5 40 км 1/0
[Ac lent Ci sp]
+25.4 +10.7 40 +26 +26 жарко 1013.9 1005.3
20 16.08 С 5 30 км 1/0
[Ac lent Ci sp]
+24.4 +10.2 41 +25 +25 комфорт 1014.7 1006.0
21 16.08 н/о н/о +23.1 +9.2 41 1015.6 1006.9
00 17.08 С 3 н/о н/о +21.1 +9.7 48 +22 +22 комфорт 1016.0 1007.2
03 17.08 СЗ 1 30 км 1/0
[Ci sp]
+19.1 +10.7 58 +21 +21 комфорт 1015.1 1006.3
04 17.08 С 1 40 км 3/0
[Ci sp]
+19.8 +10.3 54 +22 +22 комфорт 1015.2 1006.4
05 17.08 СВ 3 40 км 1/0
[Ci fib]
+20.8 +9.9 50 +23 +23 комфорт 1015.2 1006.4
06 17.08 ЮЗ 1 40 км 1/0
[Ci fib]
+22.1 +10.8 49 +24 +27 комфорт 1015.8 1007.1 +19.0
07 17.08 С 3 н/о н/о +24.7 +8.7 36 +25 +25 комфорт 1016.8 1008.1
08 17.08 С 3 40 км 1/0
[Ci fib]
+27.2 +10.2 34 +28 +35 жарко 1016.2 1007.6
09 17.08 Ю 4 40 км 6/0
[Ac lent Ci]
+27.8 +10.6 34 +28 +36 жарко 1015.8 1007.2
10 17.08 Ю 3 40 км 6/0
[Ci sp]
+28.8 +12.0 35 +30 +41 жарко 1015.5 1007.0
11 17.08 Ю 3 40 км 8/0
[Ci sp]
+28.1 +14.5 43 +30 +42 жарко 1015.6 1007.0
12 17.08 ЮЗ 3 40 км 8/0
[Ci sp]
+28.0 +13.6 41 +30 +40 жарко 1015.5 1006.9
13 17.08 З 4 40 км 6/0
[Ci sp]
+28.7 +11.9 35 +30 +37 жарко 1015.5 1006.9
14 17.08 ЮЗ 4 н/о н/о +28.2 +13.4 40 +30 +30 жарко 1016.0 1007.4
15 17.08 ЮЗ 4 н/о н/о +27.7 +15.1 46 +30 +30 жарко 1016.0 1007.4
16 17.08 ЮЗ 3 н/о н/о +28.3 +15.3 45 +31 +31 душно 1015.7 1007.1
17 17.08 ЮЗ 3 н/о н/о +27.3 +14.4 45 +30 +30 душно 1015.6 1007.0
18 17.08 ЮЗ 1 45 км 5/0
[Ci]
+25.2 +15.8 56 +28 +28 жарко 1014.6 1006.0 +29.3
19 17.08 СЗ 1 40 км 6/0
[Ci fib]
+24.0 +14.3 55 +27 +27 жарко 1015.0 1006.3
20 17.08 СВ 1 40 км 9/0
[Cs]
+23.7 +12.2 48 +25 +25 комфорт 1015.3 1006.6
21 17.08 штиль 0 н/о н/о +22.7 +10.9 47 +25 +25 комфорт 1016.0 1007.2
00 18.08 штиль 0 н/о н/о +20.1 +12.2 60 +22 +22 комфорт 1016.3 1007.5
03 18.08 З 1 30 км 1/0
[Ci fib]
+18.7 +12.9 69 +21 +21 комфорт 1015.4 1006.6
04 18.08 С 1 35 км 3/0
[Ci fib]
+18.7 +12.5 67 +21 +21 комфорт 1015.5 1006.7
05 18.08 штиль 0 35 км 1/0
[Ci fib]
+19.2 +12.9 67 +20 +21 1015.5 1006.7
06 18.08 штиль 0 40 км 1/0
[Ci fib]
+20.7 +13.0 61 +23 +26 комфорт 1015.5 1006.7 +18.4
07 18.08 ЮЗ 1 40 км 1/0
[Ci fib]
+23.6 +13.6 53 +26 +32 жарко 1015.3 1006.6
08 18.08 ЮЗ 1 40 км 1/0
[Ci fib]
+27.1 +12.4 40 +29 +39 жарко 1015.4 1006.8
09 18.08 ЮЗ 1 40 км 1/0
[Ci fib]
+30.0 +11.6 32 +31 +45 жарко 1015.4 1006.9
10 18.08 ЮЗ 3 40 км 1/0
[Ci fib]
+31.0 +12.4 32 +32 +44 жарко 1015.3 1006.8
11 18.08 ЮЗ 3 40 км 1/0
[Ci fib]
+31.3 +14.5 36 +33 +46 жарко 1015.4 1006.9
12 18.08 ЮЗ 4 40 км 1/0
[Ci fib]
+30.3 +16.4 43 +34 +44 очень
душно
1015.5 1007.0
13 18.08 ЮЗ 3 40 км 1/0
[Ci fib]
+30.9 +16.5 42 +34 +44 душно 1015.5 1007.0
14 18.08 ЮЗ 3 н/о н/о +30.9 +12.8 33 +32 +32 жарко 1015.9 1007.4
15 18.08 ЮЗ 3 н/о н/о +29.8 +11.4 32 +30 +30 жарко 1016.0 1007.4
16 18.08 ЮЗ 2 н/о н/о +29.3 +14.8 41 +32 +32 душно 1015.8 1007.2
17 18.08 ЮЗ 2 н/о н/о +27.9 +15.6 47 +31 +31 душно 1015.6 1007.0
18 18.08 З 1 40 км 1/0
[Ci fib]
+26.8 +15.2 49 +30 +30 душно 1014.2 1005.6 +31.4
19 18.08 штиль 0 40 км 1/0
[Ac lent Ci fib]
+25.5 +18.2 64 +30 +30 душно 1014.5 1005.9
20 18.08 штиль 0 30 км ясно +24.7 +16.2 59 +28 +28 душно 1014.5 1005.9
21 18.08 штиль 0 н/о н/о +23.5 +15.6 61 +27 +27 душно 1016.2 1007.5
00 19.08 штиль 0 н/о н/о +21.7 +15.6 68 +25 +25 комфорт 1016.3 1007.5
03 19.08 СЗ 1 30 км ясно +20.6 +15.7 73 +25 +25 комфорт 1015.3 1006.5
04 19.08 штиль 0 40 км ясно +20.7 +15.6 73 +24 +24 комфорт 1015.4 1006.6
05 19.08 СЗ 1 45 км ясно +20.7 +15.8 74 +25 +26 комфорт 1015.6 1006.8
06 19.08 СВ 1 45 км ясно +24.5 +16.5 61 +28 +31 душно 1015.8 1007.1 +20.1
07 19.08 Ю 1 45 км ясно +25.3 +16.1 57 +29 +35 душно 1015.8 1007.2
08 19.08 ЮЗ 1 45 км ясно +28.1 +15.5 46 +31 +42 душно 1015.5 1006.9
09 19.08 ЮЗ 1 40 км ясно +31.2 +13.9 35 +33 +48 жарко 1015.3 1006.8
10 19.08 Ю 2 40 км ясно +30.7 +16.9 44 +34 +50 очень
душно
1015.4 1006.9
11 19.08 Ю 3 40 км ясно +29.8 +20.3 57 +37 +50 очень
душно
1015.6 1007.1
12 19.08 Ю 3 40 км ясно +30.2 +19.1 51 +36 +48 очень
душно
1015.7 1007.2
13 19.08 ЮЗ 4 40 км ясно +31.8 +15.0 36 +34 +42 душно 1015.9 1007.4
14 19.08 ЮЗ 3 н/о н/о +31.7 +14.9 36 +34 +34 душно 1016.5 1008.0
15 19.08 ЮЗ 3 н/о н/о +30.7 +14.4 37 +33 +33 душно 1016.5 1008.0
16 19.08 ЮЗ 2 н/о н/о +30.6 +15.1 39 +33 +33 душно 1016.1 1007.6
17 19.08 З 2 н/о н/о +29.6 +15.8 43 +32 +32 душно 1016.2 1007.6
18 19.08 Ю 1 45 км 1/0
[Ci sp]
+27.6 +18.1 56 +32 +32 очень
душно
1015.5 1006.9 +32.2
19 19.08 штиль 0 40 км 1/0
[Ci sp]
+26.4 +17.7 59 +31 +31 душно 1015.8 1007.2
20 19.08 штиль 0 40 км ясно +25.4 +17.6 62 +30 +30 душно 1015.8 1007.2
21 19.08 штиль 0 н/о н/о +24.8 +15.8 57 +28 +28 жарко 1016.9 1008.2
00 20.08 штиль 0 н/о н/о +22.7 +15.9 65 +27 +27 душно 1017.2 1008.4
03 20.08 Ю 1 30 км ясно +21.6 +16.5 73 +25 +25 комфорт 1016.3 1007.6
04 20.08 В 1 30 км ясно +21.4 +16.4 73 +25 +25 комфорт 1016.2 1007.4
05 20.08 штиль 0 35 км ясно +21.3 +16.8 76 +25 +26 комфорт 1015.9 1007.1
06 20.08 штиль 0 40 км ясно +22.9 +16.6 68 +28 +31 душно 1015.8 1007.1 +20.7
07 20.08 штиль 0 40 км ясно +25.6 +16.6 58 +29 +37 душно 1016.1 1007.5
08 20.08 Ю 1 30 км ясно +29.1 +16.6 47 +33 +44 очень
душно
1016.0 1007.5
09 20.08 ЮВ 3 30 км ясно +29.6 +17.7 49 +34 +45 очень
душно
1016.3 1007.8
10 20.08 Ю 2 30 км ясно +30.9 +17.0 43 +34 +50 душно 1016.7 1008.2
11 20.08 З 3 30 км ясно +31.0 +17.5 44 +35 +48 очень
душно
1017.1 1008.6

 

Местоположение метеостанции Шибеник (Хорватия): широта 43.73 долгота 15.92 высота над уровнем моря 75 м.

В архиве по умолчанию представлена погода в Шибенике за последнюю неделю. Архивные данные за месяц целиком и за предыдущие месяцы, начиная с января 2011 года, Вы можете получить, выбрав интересующий диапазон дат из раскрывающегося списка и нажав кнопку "Ввод!".


*Определитесь, кто Вы:
робот инопланетянин человек

Внимание! Время в таблицах - всемирное. Для получения местного времени необходимо прибавить поправку, которая равна 1 ч.

Смотрите также архив погоды в соседних городах и на ближайших метеорологических станциях:

Погода в Сплит аэропорту (Хорватия) (38 км)
Погода в Сплите (Хорватия) (47 км)
Погода в Задар аэропорту (Хорватия) (61 км)
Погода в Задаре (Хорватия) (72 км)
Погода в Хваре (Хорватия) (76 км)
Погода в Комице (Хорватия) (77 км)
Погода в Ливно (Босния и Герцеговина) (89 км)
Погода в Госпиче (Хорватия) (101 км)
Погода в Макарска (Хорватия) (102 км)
Погода в Бихаче (Босния и Герцеговина) (121 км)

Пояснения к столбцам:

Ветер - указаны скорость ветра в м/с - средняя за 10 мин, порывы в срок и между сроками (в фигурных скобках) и направление, откуда дует ветер: С - северный, СВ - северо-восточный, В - восточный, ЮВ - юго-восточный, Ю - южный, ЮЗ - юго-западный, З - западный, СЗ - северо-западный.
Видимость - горизонтальная дальность видимости в метрах или километрах. При видимости от 1 до 10 км при отсутствии осадков обычно наблюдается дымка, при ухудшении видимости до 1 км и менее - туман. В сухую погоду видимость может ухудшаться дымом, пылью или мглою.
Явления - указаны атмосферные явления, наблюдавшиеся в срок или в последний час перед сроком; фигурными скобками обозначены явления, наблюдавшиеся между сроками (за 1-3 часа до срока); квадратными скобками обозначены град или гололедные отложения с указанием их диаметра в мм.
Облачность - указаны через наклонную черту общая и нижняя облачность в баллах и высота нижней границы облаков в метрах; квадратными скобками обозначены формы облаков: Ci - перистые, Cs - перисто-слоистые, Cc - перисто-кучевые, Ac - высококучевые, As - высокослоистые, Sc - слоисто-кучевые, Ns - слоисто-дождевые, Cu - кучевые, Cb - кучево-дождевые. Подробнее классификацию облаков см. в Атласе облаков (PDF).
T - Температура воздуха - температура, измеренная на высоте 2 м над землей.
Td - Температура точки росы - температура, при понижении до которой содержащийся в воздухе водяной пар достигнет насыщения.
f - Относительная влажность воздуха - влажноcть воздуха, измеренная на высоте 2 м над землей.
Te - Эффективная температура - температура, которую ощущает одетый по сезону человек в тени. Характеристика душности погоды. При расчете учитывается влияние влажности воздуха и скорости ветра на теплоощущения человека.
Tes - Эффективная температура на солнце - температура, которую ощущает человек, с поправкой на солнечный нагрев. Характеристика знойности погоды. Зависит от высоты солнца над горизонтом, облачности и скорости ветра. Ночью, в пасмурную погоду, а также при ветре 12 м/с и более поправка равна нулю.
P - Атмосферное давление - приведенное к уровню моря атмосферное давление.
Po - Атмосферное давление - измеренное на уровне метеостанции атмосферное давление.
Tmin - Минимальная температура - минимум температуры воздуха на высоте 2 м над землей.
Tmax - Максимальная температура - максимум температуры воздуха на высоте 2 м над землей.
R - Количество осадков - Количество выпавших осадков за период времени, мм. При наведении курсора мыши на число - период времени, за который выпало указанное количество осадков.
R24 - Количество осадков - Количество выпавших осадков за 24 часа, мм.
S - Снежный покров - Высота снежного покрова, см. При наведении курсора мыши на число - состояние снежного покрова и степень покрытия местности в баллах.